Location: Pine Mountain Observatory
(43.7910°N, 120.9377°W)
Time: 15:48:05
(UTC-07:00)

Vanguard 1 Rocket - Pass Details

Date: 24 May 2019
Orbit: 652 x 4224 km, 34.3° (Epoch: 18 June)

Event Time Altitude Azimuth Distance (km) Brightness Sun altitude
Exits shadow 04:50:45 - 252° (WSW) 2,997 9.5 -6.7°
Reaches altitude 10° 04:51:34 10° 249° (WSW) 2,734 9.2 -6.6°
Maximum altitude 04:57:45 44° 178° (S) 1,848 8.7 -5.7°
Drops below altitude 10° 05:09:00 10° 112° (ESE) 4,903 11.6 -4.0°
Sets 05:14:18 0° 108° (ESE) 6,525 12.4 -3.2°
